• In Netherlands
  • List of Countries
  • For 7 days
  • Water Temperature
  • Satellite Maps
  • Weather Map
  • Weather Widgets
  • user-avatar
    Login

    Hourly Weather Canberra

    Today, 29 March, Wednesday

    Time Temperature Precipitation Wind Pressure Humidity
    00:00 +12°C° 0 mm 1 mps 706 mmHg 86%
    01:00 +11°C° 0 mm 0 mps 706 mmHg 87%
    02:00 +11°C° 0 mm 1 mps 706 mmHg 85%
    03:00 +11°C° 0 mm 1 mps 705 mmHg 83%
    04:00 +10°C° 0 mm 1 mps 705 mmHg 87%
    05:00 +11°C° 0 mm 1 mps 705 mmHg 80%
    06:00 +11°C° 0 mm 1 mps 705 mmHg 73%
    07:00 +12°C° 0 mm 1 mps 706 mmHg 65%
    08:00 +16°C° 0 mm 1 mps 706 mmHg 52%
    09:00 +20°C° 0 mm 2 mps 706 mmHg 38%
    10:00 +23°C° 0 mm 2 mps 707 mmHg 25%
    11:00 +25°C° 0 mm 3 mps 707 mmHg 23%
    12:00 +27°C° 0 mm 4 mps 706 mmHg 21%
    13:00 +29°C° 0 mm 5 mps 706 mmHg 19%
    14:00 +29°C° 0 mm 5 mps 705 mmHg 22%
    15:00 +29°C° 0 mm 4 mps 705 mmHg 24%
    16:00 +28°C° 0 mm 4 mps 704 mmHg 27%
    17:00 +25°C° 0 mm 3 mps 704 mmHg 34%
    18:00 +21°C° 0 mm 2 mps 704 mmHg 42%
    19:00 +19°C° 0 mm 1 mps 703 mmHg 50%
    20:00 +18°C° 0 mm 1 mps 703 mmHg 52%
    21:00 +16°C° 0 mm 1 mps 703 mmHg 53%
    22:00 +16°C° 0 mm 1 mps 703 mmHg 55%
    23:00 +16°C° 0 mm 1 mps 703 mmHg 59%

    Tomorrow, 30 March, Thursday

    Time Temperature Precipitation Wind Pressure Humidity
    00:00 +16°C° 0 mm 1 mps 703 mmHg 63%
    01:00 +15°C° 0 mm 1 mps 703 mmHg 67%
    02:00 +15°C° 0 mm 1 mps 703 mmHg 68%
    03:00 +14°C° 0 mm 1 mps 702 mmHg 68%
    04:00 +14°C° 0 mm 1 mps 702 mmHg 69%
    05:00 +14°C° 0 mm 1 mps 703 mmHg 65%
    06:00 +14°C° 0 mm 1 mps 704 mmHg 61%
    07:00 +15°C° 0 mm 1 mps 704 mmHg 58%
    08:00 +18°C° 0 mm 1 mps 705 mmHg 55%
    09:00 +19°C° 0 mm 2 mps 706 mmHg 52%
    10:00 +21°C° 0 mm 2 mps 707 mmHg 50%
    11:00 +20°C° 0.1 mm 2 mps 706 mmHg 54%
    12:00 +20°C° 0.1 mm 3 mps 706 mmHg 58%
    13:00 +19°C° 0.1 mm 3 mps 705 mmHg 61%
    14:00 +18°C° 0.4 mm 3 mps 705 mmHg 65%
    15:00 +17°C° 0.4 mm 3 mps 705 mmHg 69%
    16:00 +16°C° 0.4 mm 3 mps 706 mmHg 73%
    17:00 +14°C° 0.5 mm 3 mps 706 mmHg 78%
    18:00 +12°C° 0.5 mm 3 mps 707 mmHg 82%
    19:00 +10°C° 0.5 mm 4 mps 707 mmHg 87%
    20:00 +10°C° 0 mm 3 mps 708 mmHg 84%
    21:00 +10°C° 0 mm 3 mps 708 mmHg 82%
    22:00 +10°C° 0 mm 3 mps 709 mmHg 79%
    23:00 +9°C° 0 mm 3 mps 708 mmHg 76%

    Day after tomorrow, 31 March, Friday

    Time Temperature Precipitation Wind Pressure Humidity
    00:00 +9°C° 0 mm 3 mps 708 mmHg 74%
    01:00 +9°C° 0 mm 3 mps 708 mmHg 71%
    02:00 +8°C° 0 mm 3 mps 708 mmHg 72%
    03:00 +8°C° 0 mm 3 mps 708 mmHg 74%
    04:00 +7°C° 0 mm 3 mps 708 mmHg 75%
    05:00 +7°C° 0 mm 2 mps 708 mmHg 75%
    06:00 +7°C° 0 mm 2 mps 709 mmHg 75%
    07:00 +7°C° 0 mm 2 mps 709 mmHg 75%
    08:00 +10°C° 0 mm 2 mps 710 mmHg 65%
    09:00 +13°C° 0 mm 2 mps 710 mmHg 55%
    10:00 +16°C° 0 mm 2 mps 711 mmHg 45%
    11:00 +18°C° 0 mm 2 mps 710 mmHg 40%
    12:00 +21°C° 0 mm 1 mps 710 mmHg 35%
    13:00 +22°C° 0 mm 1 mps 710 mmHg 30%
    14:00 +22°C° 0 mm 1 mps 710 mmHg 31%
    15:00 +22°C° 0 mm 1 mps 709 mmHg 32%
    16:00 +22°C° 0 mm 1 mps 709 mmHg 32%
    17:00 +19°C° 0 mm 1 mps 709 mmHg 46%
    18:00 +14°C° 0 mm 1 mps 709 mmHg 60%
    19:00 +11°C° 0 mm 1 mps 709 mmHg 73%
    20:00 +10°C° 0 mm 1 mps 709 mmHg 79%
    21:00 +10°C° 0 mm 1 mps 709 mmHg 85%
    22:00 +9°C° 0 mm 1 mps 710 mmHg 91%
    23:00 +7°C° 0 mm 0 mps 709 mmHg 93%

    1 April, Saturday

    Time Temperature Precipitation Wind Pressure Humidity
    00:00 +7°C° 0 mm 0 mps 709 mmHg 95%
    01:00 +6°C° 0 mm 0 mps 709 mmHg 97%
    02:00 +6°C° 0 mm 0 mps 709 mmHg 97%
    03:00 +6°C° 0 mm 0 mps 709 mmHg 97%
    04:00 +5°C° 0 mm 0 mps 708 mmHg 97%
    05:00 +6°C° 0 mm 0 mps 709 mmHg 96%
    06:00 +8°C° 0 mm 1 mps 710 mmHg 94%
    07:00 +9°C° 0 mm 1 mps 710 mmHg 92%
    08:00 +12°C° 0 mm 1 mps 711 mmHg 75%
    09:00 +15°C° 0 mm 1 mps 711 mmHg 58%
    10:00 +19°C° 0 mm 1 mps 712 mmHg 41%
    11:00 +21°C° 0 mm 1 mps 712 mmHg 37%
    12:00 +23°C° 0 mm 1 mps 712 mmHg 32%
    13:00 +24°C° 0 mm 1 mps 712 mmHg 28%
    14:00 +24°C° 0 mm 1 mps 712 mmHg 29%
    15:00 +23°C° 0 mm 2 mps 711 mmHg 30%
    16:00 +23°C° 0 mm 2 mps 711 mmHg 31%
    17:00 +19°C° 0 mm 2 mps 712 mmHg 45%
    18:00 +16°C° 0 mm 2 mps 712 mmHg 59%
    19:00 +12°C° 0 mm 1 mps 712 mmHg 73%
    20:00 +12°C° 0 mm 1 mps 713 mmHg 78%
    21:00 +11°C° 0 mm 1 mps 713 mmHg 84%
    22:00 +10°C° 0 mm 2 mps 714 mmHg 89%
    23:00 +10°C° 0 mm 2 mps 714 mmHg 89%

    2 April, Sunday

    Time Temperature Precipitation Wind Pressure Humidity
    00:00 +10°C° 0 mm 2 mps 714 mmHg 89%
    01:00 +9°C° 0 mm 2 mps 714 mmHg 90%
    02:00 +10°C° 0 mm 1 mps 714 mmHg 89%
    03:00 +10°C° 0 mm 1 mps 714 mmHg 88%
    04:00 +10°C° 0 mm 1 mps 715 mmHg 88%
    05:00 +10°C° 0 mm 1 mps 715 mmHg 87%
    06:00 +10°C° 0 mm 1 mps 716 mmHg 86%
    07:00 +10°C° 0 mm 1 mps 716 mmHg 85%
    08:00 +12°C° 0 mm 2 mps 717 mmHg 74%
    09:00 +14°C° 0 mm 2 mps 717 mmHg 64%
    10:00 +16°C° 0 mm 2 mps 718 mmHg 53%
    11:00 +18°C° 0 mm 2 mps 717 mmHg 49%
    12:00 +20°C° 0 mm 1 mps 717 mmHg 45%
    13:00 +21°C° 0 mm 1 mps 717 mmHg 42%
    14:00 +19°C° 0 mm 2 mps 717 mmHg 44%
    15:00 +19°C° 0 mm 2 mps 717 mmHg 46%
    16:00 +18°C° 0 mm 2 mps 716 mmHg 48%
    17:00 +16°C° 0 mm 3 mps 717 mmHg 57%
    18:00 +14°C° 0 mm 3 mps 717 mmHg 65%
    19:00 +12°C° 0 mm 3 mps 717 mmHg 74%
    20:00 +11°C° 0 mm 3 mps 718 mmHg 80%
    21:00 +11°C° 0 mm 3 mps 718 mmHg 86%
    22:00 +10°C° 0 mm 2 mps 718 mmHg 92%
    23:00 +10°C° 0 mm 2 mps 718 mmHg 92%

    3 April, Monday

    Time Temperature Precipitation Wind Pressure Humidity
    00:00 +9°C° 0 mm 2 mps 718 mmHg 91%
    01:00 +9°C° 0 mm 2 mps 718 mmHg 90%
    02:00 +9°C° 0 mm 2 mps 718 mmHg 91%
    03:00 +9°C° 0 mm 2 mps 718 mmHg 92%
    04:00 +8°C° 0 mm 2 mps 718 mmHg 93%
    05:00 +8°C° 0 mm 2 mps 718 mmHg 92%
    06:00 +9°C° 0 mm 2 mps 718 mmHg 90%
    07:00 +9°C° 0 mm 2 mps 719 mmHg 89%
    08:00 +12°C° 0 mm 2 mps 719 mmHg 80%
    09:00 +13°C° 0 mm 3 mps 719 mmHg 70%
    10:00 +17°C° 0 mm 3 mps 720 mmHg 60%
    11:00 +17°C° 0.1 mm 3 mps 719 mmHg 59%
    12:00 +18°C° 0.1 mm 3 mps 718 mmHg 59%
    13:00 +18°C° 0.1 mm 3 mps 718 mmHg 58%
    14:00 +18°C° 0.2 mm 3 mps 718 mmHg 60%
    15:00 +18°C° 0.2 mm 3 mps 717 mmHg 63%
    16:00 +17°C° 0.2 mm 3 mps 717 mmHg 66%
    17:00 +16°C° 0.1 mm 3 mps 717 mmHg 74%
    18:00 +14°C° 0.1 mm 2 mps 717 mmHg 83%
    19:00 +12°C° 0.1 mm 2 mps 718 mmHg 91%
    20:00 +12°C° 0 mm 2 mps 718 mmHg 93%
    21:00 +10°C° 0 mm 2 mps 718 mmHg 94%
    22:00 +10°C° 0 mm 2 mps 718 mmHg 96%
    23:00 +9°C° 0 mm 2 mps 718 mmHg 96%
    Show more